Lid_Strength_Index
1 1 1 1 1 1 1 1 0 0 0 0 0 0 0 0 0 4 8 5 4 -1 2 6 7 8 8 8 9 11 13 15 14 14 12 11 12 11 11 11 11 10 11 11 9
1 1 1 1 1 1 1 1 1 1 1 1 0 0 0 0 5 7 2 -1 -2 -1 6 7 9 8 10 10 9 12 15 14 12 12 12 12 11 11 10 12 12 11 10 10 9
1 1 2 2 1 1 1 1 1 1 1 1 1 0 0 2 10 10 -1 -1 -3 1 6 8 8 8 11 9 10 12 13 13 11 10 10 11 12 11 11 11 11 10 10 10 10
1 2 2 1 1 1 1 1 1 1 1 1 1 1 0 5 13 8 -2 -2 -2 6 7 8 9 10 11 12 10 12 10 10 10 9 10 11 11 12 11 8 9 9 10 10 10
1 2 2 2 1 1 1 1 1 1 1 1 1 1 5 11 10 3 -1 -1 5 7 8 10 11 11 13 13 12 12 11 10 10 9 10 10 11 11 11 8 9 10 10 10 10
1 2 2 2 1 1 1 1 1 1 1 1 1 1 8 12 7 2 3 6 7 8 9 10 11 10 12 12 12 13 12 12 11 10 10 10 10 12 10 10 9 10 10 11 10
1 1 2 1 1 1 1 1 1 1 1 1 1 3 9 10 6 5 6 7 8 8 10 10 10 11 12 13 12 13 13 13 13 12 12 12 12 13 9 11 10 11 11 11 11
2 2 2 2 1 1 1 1 1 1 1 1 2 6 12 7 7 7 8 9 9 9 9 9 10 11 12 12 13 15 16 17 15 13 12 11 15 11 11 12 11 11 12 12 11
2 2 2 2 2 1 1 1 2 1 1 1 6 10 12 5 8 7 8 9 9 9 9 8 10 12 13 15 17 17 19 18 16 13 14 14 16 12 12 13 12 11 10 11 10
2 2 2 2 2 2 2 2 2 3 3 4 6 12 11 11 9 9 9 9 10 10 11 11 13 15 16 17 20 18 19 18 18 15 15 16 16 14 11 13 12 11 10 10 9
2 2 2 2 1 1 5 10 11 12 11 12 12 12 11 9 8 10 9 10 10 12 15 14 16 17 15 15 16 18 18 19 16 14 16 16 15 14 13 12 12 11 11 11 10
3 3 3 3 3 3 8 10 11 12 13 11 11 11 10 9 11 10 9 11 13 15 15 16 17 14 14 15 15 16 17 17 15 14 16 16 16 14 13 13 12 11 11 10 10
3 3 3 3 3 6 10 11 7 8 14 12 11 12 11 10 13 11 10 12 14 15 15 16 15 13 14 16 16 17 18 17 17 16 16 17 18 16 14 13 12 11 11 10 12
3 3 3 3 5 8 10 9 8 10 16 14 14 12 11 11 14 11 11 12 14 15 15 16 14 14 16 16 16 18 15 15 16 18 20 17 21 18 15 15 14 12 12 12 12
3 3 2 3 5 6 8 9 9 12 20 13 14 10 11 14 14 13 12 13 15 15 16 16 16 16 16 15 15 16 15 16 18 19 20 20 21 19 17 17 14 13 12 11 12
2 2 2 4 5 6 7 8 10 15 19 15 15 14 15 14 14 13 13 12 13 15 16 15 15 15 15 15 14 15 16 17 19 19 22 19 19 18 18 17 16 14 13 12 12
4 3 3 3 5 6 7 8 13 17 13 16 17 15 16 16 15 15 15 16 16 18 19 18 16 15 14 16 16 16 18 21 22 23 21 19 19 16 14 13 14 13 12 12 12
4 4 4 3 4 4 5 10 17 13 13 12 13 15 15 15 15 16 17 18 16 17 20 19 18 16 15 14 16 17 16 19 22 21 19 18 21 16 14 13 13 13 13 13 13
4 4 4 4 3 3 7 14 15 12 10 11 11 13 13 14 13 16 17 16 15 15 16 18 19 16 16 15 14 17 17 14 17 18 20 17 17 14 12 12 13 13 14 13 13
7 6 6 3 3 5 9 13 13 10 10 11 13 13 16 14 14 15 14 15 14 13 13 14 17 16 16 15 16 15 15 18 18 21 21 18 17 16 14 13 13 12 12 12 12
8 11 8 3 3 8 13 13 12 9 9 11 12 13 13 14 14 13 14 14 14 13 13 14 15 15 16 17 16 17 17 16 15 16 18 19 16 12 12 11 12 13 12 11 12
9 14 7 3 9 9 12 11 10 10 8 9 9 10 12 12 12 12 13 12 11 12 13 12 13 17 15 14 14 13 13 13 16 17 15 15 16 10 10 9 10 10 11 11 11
11 11 6 4 13 13 11 11 10 11 10 9 10 9 9 11 14 12 11 9 8 9 11 10 14 18 17 15 14 14 12 12 12 12 16 18 16 8 8 9 9 12 12 12 12
8 13 9 6 7 10 11 11 11 9 9 8 9 8 10 12 10 12 11 10 10 9 7 8 13 15 18 15 13 15 13 13 13 17 17 16 15 12 11 10 11 13 12 12 12
9 11 10 12 11 9 9 9 11 11 8 8 9 10 11 13 12 12 11 12 10 10 10 11 15 13 14 14 14 14 15 15 16 14 17 16 15 13 15 16 15 13 13 13 13
12 11 9 11 11 11 10 11 11 10 9 10 10 10 11 12 12 13 14 13 14 13 14 13 17 15 17 15 14 15 14 14 15 15 16 16 15 16 15 15 16 14 13 14 14
10 9 9 12 13 14 13 11 12 11 10 10 12 12 13 12 11 11 11 12 12 14 15 15 17 23 20 16 17 20 17 16 15 15 18 19 18 16 16 16 16 14 14 15 14